Home   Weather   Saint Helier   Past weeks

Flag for Jersey Past Weather in Saint Helier, Jersey — Yesterday and Last 2 Weeks

Now
54 °F

Cool.


Feels Like: 53 °F
Forecast: 62 / 69 °F
Wind: 5 mph from South

Location: Dinard Airport

Current Time: Sep 26, 2016 at 3:00:52 AM

Latest Report: Sep 26, 2016 at 2:30 AM


Visibility: N/A

Pressure: 30.24 "Hg

Humidity: 82%

Dew Point: 48 °F

Location of Saint HelierLocation

Past Weather in Saint Helier — Graph

°F

Saint Helier Temperature Yesterday

Maximum temperature yesterday: 68 °F (at 2:30 PM)
Minimum temperature yesterday: 52 °F (at 9:30 PM)
Average temperature yesterday: 61 °F

High & Low Weather Summary for the Past Weeks

 TemperatureHumidityPressure
High82 °F (Sep 12, 3:30 PM)100% (Sep 11, 4:30 AM)30.30 "Hg (Sep 11, 4:30 AM)
Low52 °F (Sep 11, 4:30 AM)46% (Sep 25, 1:00 PM)29.65 "Hg (Sep 13, 6:00 PM)
Average63 °F79%30.03 "Hg
* Reported Sep 11 2:00 AM — Sep 26 2:00 AM, Saint Helier, Weather by CustomWeather, © 2016

Note: Actual official high and low records may vary slightly from our data, if they occured in-between our weather recording intervals... More about our weather records

Advertising

Saint Helier Weather History for the Previous 24 Hours

Scroll right to see more
 ConditionsComfort  
Time TempWeatherWind HumidityBarometerVisibility
2:00 AM
Mon, Sep 26
54 °FCool.3 mph82%30.24 "HgN/A
1:30 AM54 °FCool.5 mph82%30.24 "HgN/A
1:00 AM54 °FCool.5 mph82%30.24 "HgN/A
12:30 AM54 °FCool.5 mph82%30.24 "HgN/A
12:00 AM54 °FCool.5 mph88%30.24 "HgN/A
11:30 PM
Sun, Sep 25
54 °FCool.5 mph88%30.24 "HgN/A
11:00 PM55 °FCool.5 mph82%30.21 "HgN/A
10:30 PM54 °FCool.5 mph88%30.21 "HgN/A
10:00 PM54 °FCool.3 mph88%30.21 "HgN/A
9:30 PM52 °FCool.3 mph94%30.21 "HgN/A
9:00 PM54 °FPartly cloudy.2 mph88%30.21 "HgN/A
8:30 PM54 °FPassing clouds.2 mph88%30.21 "HgN/A
8:00 PM54 °FPassing clouds.2 mph94%30.21 "HgN/A
7:30 PM54 °FCool.No wind88%30.21 "HgN/A
7:00 PM57 °FCool.2 mph82%30.18 "HgN/A
6:30 PM61 °FCool.6 mph72%30.18 "HgN/A
6:00 PM63 °FMild.9 mph64%30.18 "HgN/A
5:30 PM64 °FMild.8 mph60%30.18 "HgN/A
5:00 PM64 °FPassing clouds.9 mph60%30.18 "HgN/A
4:30 PM64 °FMild.10 mph56%30.18 "HgN/A
4:00 PM64 °FPartly sunny.13 mph60%30.15 "Hg6 mi
3:30 PM64 °FBroken clouds.13 mph56%30.15 "HgN/A
3:00 PM66 °FMild.13 mph56%30.15 "HgN/A
2:30 PM68 °FMild.8 mph46%30.12 "HgN/A
2:00 PM66 °FMild.8 mph46%30.12 "HgN/A
1:30 PM64 °FMild.13 mph49%30.12 "HgN/A
1:00 PM66 °FMild.14 mph46%30.12 "HgN/A
12:30 PM66 °FScattered clouds.13 mph49%30.12 "HgN/A
12:00 PM64 °FBroken clouds.12 mph56%30.12 "HgN/A
11:30 AM64 °FPassing clouds.14 mph60%30.09 "HgN/A
11:00 AM63 °FPassing clouds.12 mph64%30.09 "HgN/A
10:30 AM63 °FPassing clouds.10 mph68%30.09 "HgN/A
10:00 AM63 °FPassing clouds.12 mph68%30.07 "HgN/A
9:30 AM61 °FSunny.12 mph77%30.07 "Hg10 mi
9:00 AM59 °FSunny.9 mph88%30.04 "Hg10 mi
8:30 AM57 °FCool.8 mph94%30.04 "HgN/A
8:00 AM57 °FCool.7 mph94%30.04 "HgN/A
7:30 AM57 °FPartly sunny.7 mph94%30.01 "HgN/A
7:00 AM57 °FBroken clouds.7 mph94%30.01 "HgN/A
6:30 AM59 °FCool.7 mph88%29.98 "HgN/A
6:00 AM59 °FCool.8 mph94%29.98 "HgN/A
5:30 AM59 °FLight rain. Overcast.7 mph94%29.95 "HgN/A
5:00 AM59 °FPartly cloudy.6 mph94%29.95 "HgN/A
4:30 AM59 °FPartly cloudy.6 mph94%29.92 "HgN/A
4:00 AM59 °FMostly cloudy.7 mph88%29.92 "HgN/A
3:30 AM59 °FPassing clouds.10 mph94%29.89 "HgN/A
3:00 AM64 °FHeavy rain. Mostly cloudy.15 mph88%29.89 "Hg6 mi
Weather by CustomWeather, © 2016

See weather overviewHow to use our weather pages